Time,TemperatureF,DewpointF,PressureIn,WindDirection,WindDirectionDegrees,WindSpeedMPH,WindSpeedGustMPH,Humidity,HourlyPrecipIn,Conditions,Clouds,dailyrainin,SoftwareType,DateUTC
2013-10-11 00:08:00,53.0,49.0,30.16,NNE,31,1.0,3.0,86,0.00,,,0.00,weatherlink.com 1.10,2013-10-11 04:08:00,
2013-10-11 00:23:00,53.0,49.0,30.15,NE,40,2.0,3.0,86,0.00,,,0.00,weatherlink.com 1.10,2013-10-11 04:23:00,
2013-10-11 00:38:00,52.8,49.0,30.14,ENE,59,0.0,2.0,86,0.00,,,0.00,weatherlink.com 1.10,2013-10-11 04:38:00,
2013-10-11 00:53:00,52.6,49.0,30.13,NNE,21,0.0,3.0,86,0.00,,,0.00,weatherlink.com 1.10,2013-10-11 04:53:00,
2013-10-11 01:08:00,52.6,49.0,30.13,NNE,21,0.0,0.0,86,0.00,,,0.00,weatherlink.com 1.10,2013-10-11 05:08:00,
2013-10-11 01:23:00,52.7,49.0,30.13,NNE,21,0.0,1.0,87,0.00,,,0.00,weatherlink.com 1.10,2013-10-11 05:23:00,
2013-10-11 01:38:00,52.1,49.0,30.13,NNE,21,0.0,0.0,88,0.00,,,0.00,weatherlink.com 1.10,2013-10-11 05:38:00,
2013-10-11 01:53:00,51.9,48.0,30.12,NNE,31,1.0,3.0,86,0.00,,,0.00,weatherlink.com 1.10,2013-10-11 05:53:00,
2013-10-11 02:08:00,52.2,49.0,30.12,NE,43,2.0,3.0,87,0.00,,,0.00,weatherlink.com 1.10,2013-10-11 06:08:00,
2013-10-11 02:23:00,51.7,49.0,30.11,ENE,59,3.0,4.0,89,0.00,,,0.00,weatherlink.com 1.10,2013-10-11 06:23:00,
2013-10-11 02:38:00,52.2,48.0,30.11,NE,49,2.0,7.0,86,0.00,,,0.00,weatherlink.com 1.10,2013-10-11 06:38:00,
2013-10-11 02:53:00,52.1,47.0,30.11,NE,35,0.0,4.0,84,0.00,,,0.00,weatherlink.com 1.10,2013-10-11 06:53:00,
2013-10-11 03:08:00,52.4,48.0,30.12,NE,35,0.0,1.0,84,0.00,,,0.00,weatherlink.com 1.10,2013-10-11 07:08:00,
2013-10-11 03:23:00,52.1,48.0,30.11,NE,35,0.0,0.0,85,0.00,,,0.00,weatherlink.com 1.10,2013-10-11 07:23:00,
2013-10-11 03:38:00,51.7,47.0,30.11,NE,35,0.0,0.0,84,0.00,,,0.00,weatherlink.com 1.10,2013-10-11 07:38:00,
2013-10-11 03:53:00,51.8,47.0,30.11,NE,35,0.0,1.0,84,0.00,,,0.00,weatherlink.com 1.10,2013-10-11 07:53:00,
2013-10-11 04:08:00,51.6,47.0,30.11,NE,35,0.0,0.0,85,0.00,,,0.00,weatherlink.com 1.10,2013-10-11 08:08:00,
2013-10-11 04:23:00,51.4,47.0,30.11,NE,35,3.0,4.0,85,0.00,,,0.00,weatherlink.com 1.10,2013-10-11 08:23:00,
2013-10-11 04:38:00,51.3,47.0,30.11,NE,52,2.0,5.0,85,0.00,,,0.00,weatherlink.com 1.10,2013-10-11 08:38:00,
2013-10-11 04:53:00,51.2,48.0,30.11,NE,41,1.0,3.0,88,0.00,,,0.00,weatherlink.com 1.10,2013-10-11 08:53:00,
2013-10-11 05:08:00,51.3,48.0,30.10,North,5,2.0,4.0,88,0.00,,,0.00,weatherlink.com 1.10,2013-10-11 09:08:00,
2013-10-11 05:23:00,51.2,48.0,30.10,NE,48,0.0,4.0,89,0.00,,,0.00,weatherlink.com 1.10,2013-10-11 09:23:00,
2013-10-11 05:38:00,51.0,48.0,30.11,NE,48,0.0,0.0,89,0.00,,,0.00,weatherlink.com 1.10,2013-10-11 09:38:00,
2013-10-11 05:53:00,51.0,48.0,30.11,NE,48,0.0,1.0,89,0.00,,,0.00,weatherlink.com 1.10,2013-10-11 09:53:00,
2013-10-11 06:08:00,50.8,48.0,30.11,NE,48,0.0,0.0,90,0.00,,,0.00,weatherlink.com 1.10,2013-10-11 10:08:00,
2013-10-11 06:23:00,50.6,48.0,30.12,NE,48,0.0,0.0,89,0.00,,,0.00,weatherlink.com 1.10,2013-10-11 10:23:00,
2013-10-11 06:38:00,50.3,47.0,30.12,NE,40,3.0,4.0,88,0.00,,,0.00,weatherlink.com 1.10,2013-10-11 10:38:00,
2013-10-11 06:53:00,50.3,47.0,30.12,ENE,72,2.0,5.0,89,0.00,,,0.00,weatherlink.com 1.10,2013-10-11 10:53:00,
2013-10-11 07:08:00,50.4,47.0,30.13,NE,44,0.0,2.0,89,0.00,,,0.00,weatherlink.com 1.10,2013-10-11 11:08:00,
2013-10-11 07:23:00,50.4,47.0,30.12,NE,44,0.0,1.0,87,0.00,,,0.00,weatherlink.com 1.10,2013-10-11 11:23:00,
2013-10-11 07:38:00,51.4,43.0,30.12,NNE,26,4.0,5.0,73,0.00,,,0.00,weatherlink.com 1.10,2013-10-11 11:38:00,
2013-10-11 07:54:00,52.1,43.0,30.13,NE,46,0.0,4.0,72,0.00,,,0.00,weatherlink.com 1.10,2013-10-11 11:54:00,
2013-10-11 08:09:00,52.2,43.0,30.13,NE,51,1.0,5.0,71,0.00,,,0.00,weatherlink.com 1.10,2013-10-11 12:09:00,
2013-10-11 08:24:00,52.5,44.0,30.13,NE,44,0.0,4.0,73,0.00,,,0.00,weatherlink.com 1.10,2013-10-11 12:24:00,
2013-10-11 08:39:00,52.6,45.0,30.13,NE,44,0.0,0.0,76,0.00,,,0.00,weatherlink.com 1.10,2013-10-11 12:39:00,
2013-10-11 08:54:00,52.8,46.0,30.13,NE,44,0.0,0.0,79,0.00,,,0.00,weatherlink.com 1.10,2013-10-11 12:54:00,
2013-10-11 09:09:00,53.1,46.0,30.13,NE,43,1.0,1.0,78,0.00,,,0.00,weatherlink.com 1.10,2013-10-11 13:09:00,
2013-10-11 09:24:00,53.5,47.0,30.13,SSW,196,0.0,3.0,79,0.00,,,0.00,weatherlink.com 1.10,2013-10-11 13:24:00,
2013-10-11 09:39:00,53.7,45.0,30.13,SSW,196,0.0,0.0,73,0.00,,,0.00,weatherlink.com 1.10,2013-10-11 13:39:00,
2013-10-11 09:54:00,54.7,44.0,30.13,NE,37,0.0,2.0,68,0.00,,,0.00,weatherlink.com 1.10,2013-10-11 13:54:00,
2013-10-11 10:09:00,55.2,44.0,30.13,NE,38,0.0,0.0,65,0.00,,,0.00,weatherlink.com 1.10,2013-10-11 14:09:00,
2013-10-11 10:39:00,56.7,44.0,30.13,ENE,63,0.0,2.0,62,0.00,,,0.00,weatherlink.com 1.10,2013-10-11 14:39:00,
2013-10-11 10:54:00,57.1,42.0,30.13,ENE,62,0.0,1.0,58,0.00,,,0.00,weatherlink.com 1.10,2013-10-11 14:54:00,
2013-10-11 11:09:00,58.3,43.0,30.13,NE,46,0.0,2.0,57,0.00,,,0.00,weatherlink.com 1.10,2013-10-11 15:09:00,
2013-10-11 11:24:00,59.8,42.0,30.13,NNE,28,0.0,3.0,53,0.00,,,0.00,weatherlink.com 1.10,2013-10-11 15:24:00,
2013-10-11 11:39:00,61.7,42.0,30.13,ENE,69,0.0,1.0,48,0.00,,,0.00,weatherlink.com 1.10,2013-10-11 15:39:00,
2013-10-11 11:54:00,62.9,42.0,30.13,East,100,0.0,3.0,46,0.00,,,0.00,weatherlink.com 1.10,2013-10-11 15:54:00,
2013-10-11 12:09:00,63.6,41.0,30.12,ENE,60,2.0,4.0,43,0.00,,,0.00,weatherlink.com 1.10,2013-10-11 16:09:00,
2013-10-11 12:24:00,63.4,39.0,30.12,ENE,69,3.0,5.0,41,0.00,,,0.00,weatherlink.com 1.10,2013-10-11 16:24:00,
2013-10-11 12:39:00,64.8,40.0,30.11,ESE,105,0.0,5.0,40,0.00,,,0.00,weatherlink.com 1.10,2013-10-11 16:39:00,
2013-10-11 12:54:00,67.6,42.0,30.11,SSE,159,0.0,3.0,39,0.00,,,0.00,weatherlink.com 1.10,2013-10-11 16:54:00,
2013-10-11 13:09:00,66.7,39.0,30.10,ENE,72,3.0,9.0,36,0.00,,,0.00,weatherlink.com 1.10,2013-10-11 17:09:00,
2013-10-11 13:24:00,66.9,38.0,30.09,ENE,75,3.0,7.0,34,0.00,,,0.00,weatherlink.com 1.10,2013-10-11 17:24:00,
2013-10-11 13:39:00,67.0,40.0,30.08,ENE,71,0.0,3.0,38,0.00,,,0.00,weatherlink.com 1.10,2013-10-11 17:39:00,
2013-10-11 13:55:00,68.5,41.0,30.09,SSE,156,0.0,2.0,37,0.00,,,0.00,weatherlink.com 1.10,2013-10-11 17:55:00,
2013-10-11 14:10:00,69.0,40.0,30.08,SSW,204,0.0,4.0,35,0.00,,,0.00,weatherlink.com 1.10,2013-10-11 18:10:00,
2013-10-11 14:25:00,68.1,41.0,30.08,SSW,202,5.0,6.0,38,0.00,,,0.00,weatherlink.com 1.10,2013-10-11 18:25:00,
2013-10-11 14:40:00,68.2,42.0,30.08,SSW,195,2.0,5.0,39,0.00,,,0.00,weatherlink.com 1.10,2013-10-11 18:40:00,
2013-10-11 14:55:00,69.4,41.0,30.07,SSW,213,3.0,5.0,36,0.00,,,0.00,weatherlink.com 1.10,2013-10-11 18:55:00,
2013-10-11 15:10:00,70.0,41.0,30.07,SSE,161,1.0,3.0,35,0.00,,,0.00,weatherlink.com 1.10,2013-10-11 19:10:00,
2013-10-11 15:25:00,70.7,41.0,30.07,ENE,68,0.0,5.0,34,0.00,,,0.00,weatherlink.com 1.10,2013-10-11 19:25:00,
2013-10-11 15:40:00,72.7,42.0,30.07,NE,53,1.0,4.0,33,0.00,,,0.00,weatherlink.com 1.10,2013-10-11 19:40:00,
2013-10-11 15:55:00,71.8,39.0,30.07,NNE,33,1.0,6.0,30,0.00,,,0.00,weatherlink.com 1.10,2013-10-11 19:55:00,
2013-10-11 16:10:00,71.2,39.0,30.07,ENE,75,5.0,8.0,31,0.00,,,0.00,weatherlink.com 1.10,2013-10-11 20:10:00,
2013-10-11 16:25:00,70.0,41.0,30.07,East,86,3.0,8.0,35,0.00,,,0.00,weatherlink.com 1.10,2013-10-11 20:25:00,
2013-10-11 16:40:00,71.1,42.0,30.08,ENE,69,3.0,6.0,35,0.00,,,0.00,weatherlink.com 1.10,2013-10-11 20:40:00,
2013-10-11 16:55:00,71.1,43.0,30.08,ENE,69,3.0,7.0,36,0.00,,,0.00,weatherlink.com 1.10,2013-10-11 20:55:00,
2013-10-11 17:10:00,70.8,42.0,30.07,NNE,30,3.0,5.0,36,0.00,,,0.00,weatherlink.com 1.10,2013-10-11 21:10:00,
2013-10-11 17:25:00,70.3,41.0,30.07,NE,55,2.0,6.0,35,0.00,,,0.00,weatherlink.com 1.10,2013-10-11 21:25:00,
2013-10-11 17:40:00,69.3,40.0,30.08,ENE,69,1.0,7.0,35,0.00,,,0.00,weatherlink.com 1.10,2013-10-11 21:40:00,
2013-10-11 17:55:00,67.2,39.0,30.08,ENE,65,3.0,3.0,35,0.00,,,0.00,weatherlink.com 1.10,2013-10-11 21:55:00,
2013-10-11 18:10:00,65.8,44.0,30.08,ENE,76,0.0,2.0,45,0.00,,,0.00,weatherlink.com 1.10,2013-10-11 22:10:00,
2013-10-11 18:25:00,63.1,45.0,30.09,East,90,0.0,1.0,52,0.00,,,0.00,weatherlink.com 1.10,2013-10-11 22:25:00,
2013-10-11 18:40:00,60.3,43.0,30.09,East,90,0.0,0.0,53,0.00,,,0.00,weatherlink.com 1.10,2013-10-11 22:40:00,
2013-10-11 18:55:00,58.4,43.0,30.09,East,90,0.0,0.0,56,0.00,,,0.00,weatherlink.com 1.10,2013-10-11 22:55:00,
2013-10-11 19:10:00,57.8,42.0,30.10,NNE,31,1.0,1.0,56,0.00,,,0.00,weatherlink.com 1.10,2013-10-11 23:10:00,
2013-10-11 19:25:00,57.8,42.0,30.10,NNE,31,0.0,1.0,57,0.00,,,0.00,weatherlink.com 1.10,2013-10-11 23:25:00,
2013-10-11 19:40:00,58.0,42.0,30.10,NNE,31,1.0,2.0,56,0.00,,,0.00,weatherlink.com 1.10,2013-10-11 23:40:00,
2013-10-11 19:55:00,55.8,42.0,30.11,NNE,31,0.0,3.0,60,0.00,,,0.00,weatherlink.com 1.10,2013-10-11 23:55:00,
2013-10-11 20:10:00,56.0,41.0,30.11,NNE,31,0.0,1.0,58,0.00,,,0.00,weatherlink.com 1.10,2013-10-12 00:10:00,
2013-10-11 20:25:00,55.7,41.0,30.11,NNE,30,0.0,1.0,59,0.00,,,0.00,weatherlink.com 1.10,2013-10-12 00:25:00,
2013-10-11 20:40:00,54.9,42.0,30.11,NNE,31,0.0,0.0,62,0.00,,,0.00,weatherlink.com 1.10,2013-10-12 00:40:00,
2013-10-11 20:55:00,53.3,43.0,30.11,NNE,31,0.0,0.0,68,0.00,,,0.00,weatherlink.com 1.10,2013-10-12 00:55:00,
2013-10-11 21:10:00,52.3,43.0,30.11,NNE,31,0.0,0.0,70,0.00,,,0.00,weatherlink.com 1.10,2013-10-12 01:10:00,
2013-10-11 21:25:00,51.4,42.0,30.11,NNE,31,1.0,2.0,69,0.00,,,0.00,weatherlink.com 1.10,2013-10-12 01:25:00,
2013-10-11 21:40:00,53.0,42.0,30.12,ENE,59,0.0,1.0,67,0.00,,,0.00,weatherlink.com 1.10,2013-10-12 01:40:00,
2013-10-11 21:55:00,53.2,42.0,30.12,NE,47,0.0,2.0,67,0.00,,,0.00,weatherlink.com 1.10,2013-10-12 01:55:00,
2013-10-11 22:10:00,52.9,42.0,30.12,NNE,30,1.0,3.0,67,0.00,,,0.00,weatherlink.com 1.10,2013-10-12 02:10:00,
2013-10-11 22:25:00,52.8,42.0,30.12,NE,42,0.0,2.0,66,0.00,,,0.00,weatherlink.com 1.10,2013-10-12 02:25:00,
2013-10-11 22:40:00,51.3,41.0,30.13,NE,42,0.0,3.0,67,0.00,,,0.00,weatherlink.com 1.10,2013-10-12 02:40:00,
2013-10-11 22:55:00,49.9,41.0,30.13,NE,40,0.0,2.0,71,0.00,,,0.00,weatherlink.com 1.10,2013-10-12 02:55:00,
2013-10-11 23:10:00,49.1,40.0,30.12,NNE,23,2.0,3.0,70,0.00,,,0.00,weatherlink.com 1.10,2013-10-12 03:10:00,
2013-10-11 23:25:00,50.1,40.0,30.13,NE,36,0.0,2.0,68,0.00,,,0.00,weatherlink.com 1.10,2013-10-12 03:25:00,
2013-10-11 23:40:00,48.8,40.0,30.13,NE,36,0.0,0.0,72,0.00,,,0.00,weatherlink.com 1.10,2013-10-12 03:40:00,
2013-10-11 23:55:00,48.3,40.0,30.13,NE,36,0.0,0.0,72,0.00,,,0.00,weatherlink.com 1.10,2013-10-12 03:55:00,